Карточка аэропорта UMKK

Внимание!
Информация на этой странице в стадии наполнения.
Если вы не увидели какой-то информации, или заметили неточность - пожалуйста сообщите нам!
Спасибо!
Команда RU-STAFF
Название аэропортаХраброво
Название аэропорта (англ.)Khrabrovo
Превышение43 ft. (13.1 m.)
Координаты54°53.4', 20°35.55'
Высота перехода4000ft
Эшелон переходаFL50 (QNH>=1013hPa); FL60 (QNH<1013hPa); FL50 (QNH<977hPa);
Коды ответчика6620-6637
Зона ОрВДКалининград РПИ (UMKK)
Данные METARUMKK 172130Z 00000MPS CAVOK 20/20 Q1014 R24/CLRD95 NOSIG RMK QFE759/1012
Проноз погоды (TAF)UMKK 171956Z 1721/1821 VRB01MPS 4900 BR SCT020 TX30/1812Z TN17/1802Z TEMPO 1721/1804 0300 PRFG BECMG 1804/1806 9999 NSW
NOTAMshow/hide NOTAM
AWOS   TABLE

Информация о ВПП

ВПП Длина ВПП (м.) Покрытие Курс ВПП Частота ILS
243350Асфальтобетон240109.5
063350Асфальтобетон60110.3

Диспетчерские позиции

Позывной Наименование органа УВД Частота
UMKK_APPКалининград-Подход126.0
UMKK_TWRКалининград-Вышка127.2



Спутниковое изображение